QPF
0.00 0.01 0.01 0.02 0.04 0.05 0.05 0.04 0.03 0.03 0.04 0.04 0.06 0.07 0.06 0.06 0.06 0.06 0.06 0.07 0.07 0.07 0.07 0.06 0.06 0.06 0.06 0.07 0.09 0.10 0.09 0.09 0.10 0.09 0.07 0.06 0.07 0.07 0.06 0.05 0.04 0.03 0.03
0.01 0.01 0.02 0.03 0.04 0.05 0.07 0.06 0.05 0.04 0.03 0.03 0.03 0.05 0.06 0.05 0.05 0.06 0.06 0.06 0.07 0.07 0.07 0.07 0.07 0.06 0.07 0.08 0.09 0.09 0.08 0.06 0.08 0.09 0.07 0.06 0.06 0.04 0.03 0.03 0.03 0.02 0.02
0.02 0.03 0.03 0.03 0.04 0.04 0.04 0.06 0.06 0.04 0.03 0.03 0.02 0.03 0.03 0.02 0.03 0.03 0.04 0.06 0.06 0.07 0.08 0.10 0.08 0.08 0.09 0.09 0.09 0.09 0.07 0.06 0.07 0.07 0.07 0.07 0.06 0.04 0.03 0.02 0.01 0.01 0.01
0.02 0.02 0.03 0.02 0.02 0.03 0.03 0.05 0.06 0.04 0.03 0.03 0.02 0.02 0.02 0.02 0.03 0.04 0.05 0.06 0.05 0.06 0.08 0.09 0.08 0.09 0.10 0.09 0.08 0.07 0.07 0.07 0.06 0.05 0.04 0.04 0.04 0.04 0.04 0.03 0.02 0.01 0.02
0.01 0.01 0.01 0.02 0.02 0.02 0.02 0.04 0.05 0.04 0.03 0.03 0.03 0.03 0.03 0.04 0.04 0.04 0.04 0.05 0.05 0.05 0.05 0.05 0.06 0.09 0.10 0.10 0.09 0.09 0.08 0.08 0.08 0.07 0.05 0.03 0.03 0.03 0.03 0.03 0.02 0.02 0.02
0.00 0.01 0.00 0.01 0.02 0.02 0.02 0.02 0.03 0.04 0.04 0.04 0.04 0.05 0.04 0.04 0.05 0.05 0.05 0.05 0.06 0.05 0.04 0.05 0.06 0.08 0.08 0.09 0.09 0.09 0.09 0.08 0.08 0.08 0.07 0.06 0.04 0.04 0.04 0.03 0.03 0.02 0.03
0.00 0.01 0.00 0.00 0.01 0.01 0.01 0.02 0.02 0.04 0.05 0.05 0.04 0.05 0.05 0.04 0.05 0.07 0.07 0.06 0.05 0.04 0.03 0.03 0.04 0.04 0.04 0.05 0.06 0.06 0.07 0.06 0.07 0.06 0.07 0.07 0.06 0.05 0.06 0.05 0.04 0.03 0.02
0.00 0.00 0.00 0.00 0.01 0.03 0.03 0.03 0.04 0.04 0.05 0.05 0.05 0.04 0.04 0.03 0.04 0.05 0.04 0.03 0.03 0.02 0.03 0.02 0.02 0.02 0.02 0.03 0.04 0.05 0.05 0.05 0.06 0.06 0.06 0.07 0.06 0.06 0.05 0.05 0.05 0.04 0.03
0.00 0.01 0.01 0.02 0.03 0.04 0.04 0.04 0.04 0.03 0.03 0.03 0.04 0.05 0.04 0.03 0.03 0.04 0.03 0.02 0.02 0.02 0.02 0.02 0.01 0.01 0.02 0.02 0.02 0.02 0.02 0.03 0.03 0.03 0.04 0.04 0.03 0.03 0.04 0.04 0.05 0.05 0.05
0.00 0.01 0.02 0.03 0.02 0.02 0.02 0.02 0.03 0.02 0.02 0.03 0.04 0.03 0.04 0.03 0.03 0.04 0.03 0.03 0.03 0.02 0.01 0.01 0.01 0.02 0.02 0.02 0.02 0.02 0.02 0.02 0.02 0.02 0.03 0.03 0.03 0.03 0.03 0.03 0.03 0.04 0.05
0.01 0.01 0.01 0.03 0.02 0.02 0.01 0.01 0.01 0.02 0.02 0.02 0.02 0.02 0.03 0.03 0.02 0.03 0.03 0.02 0.02 0.01 0.01 0.01 0.02 0.02 0.03 0.03 0.03 0.03 0.02 0.02 0.02 0.01 0.01 0.02 0.03 0.03 0.03 0.03 0.03 0.02 0.03
0.01 0.01 0.01 0.02 0.01 0.01 0.01 0.01 0.01 0.02 0.02 0.02 0.02 0.02 0.02 0.02 0.02 0.02 0.02 0.02 0.02 0.02 0.02 0.02 0.02 0.02 0.02 0.02 0.03 0.02 0.01 0.01 0.01 0.01 0.01 0.02 0.02 0.03 0.03 0.03 0.03 0.03 0.03
0.01 0.01 0.01 0.01 0.01 0.01 0.01 0.01 0.01 0.01 0.02 0.02 0.01 0.01 0.01 0.01 0.01 0.02 0.02 0.02 0.02 0.02 0.02 0.01 0.01 0.01 0.02 0.03 0.03 0.03 0.02 0.01 0.02 0.01 0.01 0.01 0.01 0.02 0.03 0.03 0.02 0.02 0.02
0.01 0.02 0.01 0.01 0.01 0.01 0.01 0.01 0.01 0.01 0.01 0.01 0.01 0.01 0.01 0.01 0.02 0.02 0.04 0.04 0.02 0.02 0.02 0.01 0.02 0.03 0.03 0.03 0.02 0.02 0.01 0.01 0.01 0.01 0.01 0.01 0.01 0.01 0.01 0.02 0.02 0.02 0.02
0.01 0.01 0.01 0.01 0.02 0.01 0.01 0.02 0.02 0.01 0.01 0.01 0.01 0.01 0.01 0.01 0.02 0.02 0.03 0.03 0.02 0.02 0.02 0.01 0.02 0.02 0.01 0.01 0.01 0.01 0.01 0.01 0.01 0.01 0.01 0.01 0.01 0.02 0.01 0.01 0.02 0.03 0.03
0.01 0.01 0.02 0.01 0.02 0.01 0.01 0.01 0.01 0.01 0.01 0.01 0.01 0.01 0.01 0.01 0.01 0.01 0.01 0.01 0.01 0.01 0.01 0.01 0.01 0.01 0.00 0.00 0.00 0.01 0.02 0.02 0.02 0.01 0.01 0.01 0.01 0.01 0.01 0.01 0.01 0.02 0.03
0.01 0.01 0.01 0.01 0.01 0.02 0.02 0.02 0.01 0.01 0.02 0.02 0.01 0.01 0.01 0.01 0.01 0.02 0.01 0.01 0.01 0.01 0.01 0.02 0.01 0.01 0.01 0.01 0.01 0.01 0.02 0.02 0.02 0.02 0.02 0.01 0.00 0.00 0.00 0.01 0.01 0.01 0.01
0.01 0.01 0.01 0.00 0.01 0.01 0.02 0.03 0.02 0.03 0.02 0.02 0.02 0.01 0.01 0.02 0.02 0.02 0.01 0.01 0.01 0.02 0.02 0.02 0.02 0.02 0.02 0.02 0.01 0.01 0.01 0.02 0.02 0.01 0.01 0.01 0.01 0.01 0.01 0.01 0.01 0.01 0.01
0.01 0.01 0.00 0.00 0.01 0.01 0.02 0.02 0.02 0.02 0.02 0.02 0.03 0.03 0.02 0.02 0.02 0.02 0.02 0.01 0.02 0.03 0.02 0.03 0.03 0.03 0.03 0.02 0.01 0.01 0.01 0.01 0.01 0.01 0.01 0.01 0.01 0.01 0.02 0.01 0.01 0.01 0.03
0.01 0.01 0.00 0.01 0.02 0.02 0.02 0.02 0.01 0.01 0.02 0.02 0.03 0.03 0.03 0.04 0.04 0.03 0.02 0.03 0.04 0.04 0.02 0.03 0.04 0.03 0.03 0.01 0.00 0.00 0.01 0.01 0.02 0.02 0.01 0.01 0.01 0.01 0.01 0.01 0.01 0.03 0.04
0.01 0.00 0.01 0.02 0.02 0.02 0.02 0.02 0.01 0.01 0.02 0.03 0.03 0.03 0.03 0.03 0.03 0.03 0.03 0.03 0.03 0.02 0.02 0.02 0.02 0.01 0.01 0.01 0.00 0.00 0.01 0.01 0.01 0.01 0.01 0.01 0.00 0.00 0.00 0.01 0.01 0.02 0.02
0.01 0.01 0.02 0.03 0.03 0.03 0.03 0.03 0.03 0.03 0.03 0.02 0.03 0.03 0.03 0.03 0.03 0.03 0.04 0.04 0.02 0.01 0.01 0.01 0.01 0.01 0.01 0.01 0.00 0.00 0.00 0.00 0.01 0.01 0.01 0.01 0.00 0.00 0.00 0.00 0.00 0.01 0.01
0.01 0.02 0.03 0.04 0.03 0.03 0.03 0.03 0.04 0.05 0.04 0.03 0.03 0.04 0.04 0.04 0.03 0.03 0.03 0.03 0.02 0.02 0.02 0.02 0.02 0.02 0.02 0.01 0.01 0.00 0.00 0.00 0.00 0.01 0.01 0.01 0.00 0.00 0.00 0.00 0.01 0.01 0.02
0.03 0.02 0.02 0.03 0.03 0.02 0.02 0.02 0.02 0.02 0.02 0.02 0.03 0.04 0.03 0.02 0.03 0.03 0.03 0.03 0.02 0.02 0.02 0.02 0.02 0.02 0.02 0.02 0.02 0.01 0.01 0.01 0.01 0.01 0.01 0.01 0.01 0.01 0.01 0.01 0.01 0.01 0.02
0.02 0.02 0.03 0.03 0.03 0.02 0.02 0.02 0.02 0.02 0.02 0.01 0.02 0.02 0.02 0.03 0.03 0.03 0.03 0.03 0.02 0.02 0.01 0.02 0.02 0.01 0.02 0.01 0.01 0.01 0.01 0.01 0.01 0.01 0.01 0.02 0.01 0.01 0.01 0.01 0.01 0.01 0.02
0.02 0.03 0.02 0.02 0.02 0.02 0.02 0.02 0.02 0.02 0.02 0.01 0.01 0.01 0.02 0.02 0.03 0.03 0.02 0.02 0.02 0.01 0.01 0.00 0.00 0.00 0.00 0.00 0.00 0.00 0.00 0.01 0.01 0.01 0.01 0.02 0.02 0.02 0.01 0.02 0.01 0.02 0.02
MSLP
1015.44 1015.53 1015.60 1015.63 1015.61 1015.53 1015.39 1015.17 1014.86 1014.47 1014.00 1013.45 1012.84 1012.19 1011.54 1010.91 1010.33 1009.81 1009.35 1008.92 1008.50 1008.06 1007.59 1007.07 1006.53 1005.99 1005.50 1005.13 1004.91 1004.87 1005.03 1005.35 1005.80 1006.30 1006.80 1007.22 1007.54 1007.73 1007.80 1007.78 1007.72 1007.67 1007.65
1015.54 1015.69 1015.80 1015.84 1015.81 1015.70 1015.52 1015.27 1014.95 1014.56 1014.10 1013.57 1012.99 1012.36 1011.71 1011.07 1010.45 1009.88 1009.36 1008.88 1008.43 1007.99 1007.53 1007.04 1006.52 1006.00 1005.53 1005.13 1004.87 1004.77 1004.86 1005.12 1005.51 1005.98 1006.48 1006.93 1007.29 1007.53 1007.64 1007.64 1007.58 1007.50 1007.43
1015.50 1015.70 1015.83 1015.87 1015.83 1015.69 1015.48 1015.20 1014.88 1014.51 1014.08 1013.61 1013.07 1012.49 1011.86 1011.21 1010.57 1009.96 1009.38 1008.86 1008.37 1007.90 1007.43 1006.94 1006.44 1005.93 1005.44 1005.03 1004.72 1004.56 1004.58 1004.78 1005.13 1005.59 1006.10 1006.59 1007.01 1007.32 1007.51 1007.57 1007.54 1007.46 1007.38
1015.35 1015.58 1015.72 1015.76 1015.69 1015.52 1015.28 1014.99 1014.67 1014.33 1013.96 1013.54 1013.08 1012.55 1011.96 1011.33 1010.68 1010.03 1009.41 1008.83 1008.29 1007.78 1007.28 1006.78 1006.27 1005.76 1005.26 1004.82 1004.47 1004.27 1004.23 1004.38 1004.70 1005.15 1005.67 1006.20 1006.69 1007.08 1007.34 1007.48 1007.51 1007.47 1007.40
1015.15 1015.40 1015.54 1015.56 1015.46 1015.26 1015.00 1014.69 1014.38 1014.07 1013.75 1013.40 1013.00 1012.54 1012.01 1011.41 1010.76 1010.09 1009.42 1008.79 1008.19 1007.63 1007.10 1006.57 1006.05 1005.53 1005.03 1004.57 1004.20 1003.96 1003.89 1003.99 1004.28 1004.70 1005.22 1005.78 1006.32 1006.77 1007.11 1007.32 1007.42 1007.44 1007.42
1014.97 1015.22 1015.36 1015.36 1015.23 1015.00 1014.70 1014.39 1014.08 1013.78 1013.51 1013.21 1012.88 1012.48 1012.00 1011.43 1010.79 1010.10 1009.41 1008.73 1008.08 1007.48 1006.91 1006.37 1005.84 1005.33 1004.84 1004.38 1004.01 1003.75 1003.64 1003.71 1003.95 1004.34 1004.84 1005.39 1005.93 1006.42 1006.80 1007.08 1007.24 1007.33 1007.36
1014.84 1015.10 1015.24 1015.22 1015.06 1014.80 1014.48 1014.14 1013.82 1013.53 1013.28 1013.02 1012.74 1012.39 1011.94 1011.40 1010.77 1010.08 1009.37 1008.66 1007.98 1007.36 1006.78 1006.24 1005.73 1005.24 1004.78 1004.36 1004.00 1003.74 1003.61 1003.64 1003.82 1004.15 1004.59 1005.09 1005.60 1006.07 1006.47 1006.78 1006.99 1007.13 1007.23
1014.78 1015.05 1015.19 1015.17 1015.00 1014.71 1014.36 1013.99 1013.65 1013.35 1013.10 1012.86 1012.59 1012.27 1011.85 1011.33 1010.72 1010.04 1009.32 1008.61 1007.93 1007.31 1006.75 1006.24 1005.78 1005.35 1004.94 1004.57 1004.25 1004.00 1003.86 1003.84 1003.96 1004.20 1004.54 1004.95 1005.39 1005.81 1006.18 1006.48 1006.71 1006.89 1007.04
1014.76 1015.06 1015.21 1015.20 1015.02 1014.72 1014.34 1013.95 1013.58 1013.26 1012.99 1012.73 1012.47 1012.15 1011.75 1011.25 1010.66 1009.99 1009.30 1008.61 1007.96 1007.37 1006.86 1006.41 1006.02 1005.67 1005.35 1005.05 1004.78 1004.56 1004.40 1004.34 1004.38 1004.52 1004.74 1005.03 1005.36 1005.69 1006.00 1006.26 1006.49 1006.69 1006.87
1014.75 1015.09 1015.27 1015.27 1015.10 1014.79 1014.41 1013.99 1013.59 1013.24 1012.94 1012.66 1012.38 1012.06 1011.66 1011.18 1010.61 1009.98 1009.33 1008.68 1008.09 1007.57 1007.13 1006.77 1006.47 1006.21 1005.97 1005.75 1005.53 1005.34 1005.18 1005.07 1005.03 1005.07 1005.17 1005.33 1005.54 1005.76 1005.98 1006.20 1006.40 1006.58 1006.77
1014.72 1015.09 1015.30 1015.33 1015.18 1014.88 1014.49 1014.06 1013.65 1013.27 1012.93 1012.63 1012.33 1012.00 1011.60 1011.14 1010.61 1010.03 1009.43 1008.86 1008.34 1007.89 1007.54 1007.26 1007.05 1006.88 1006.73 1006.58 1006.42 1006.25 1006.08 1005.94 1005.83 1005.77 1005.77 1005.81 1005.91 1006.03 1006.17 1006.32 1006.48 1006.64 1006.81
1014.64 1015.04 1015.28 1015.34 1015.21 1014.93 1014.55 1014.13 1013.70 1013.31 1012.95 1012.63 1012.31 1011.97 1011.59 1011.15 1010.66 1010.14 1009.61 1009.10 1008.66 1008.30 1008.02 1007.83 1007.69 1007.60 1007.51 1007.41 1007.28 1007.13 1006.96 1006.80 1006.64 1006.51 1006.43 1006.39 1006.40 1006.44 1006.52 1006.61 1006.72 1006.85 1006.98
1014.52 1014.95 1015.21 1015.28 1015.18 1014.92 1014.57 1014.16 1013.74 1013.34 1012.98 1012.64 1012.32 1011.98 1011.61 1011.21 1010.76 1010.29 1009.83 1009.39 1009.02 1008.73 1008.51 1008.38 1008.29 1008.24 1008.18 1008.11 1008.01 1007.87 1007.70 1007.52 1007.34 1007.18 1007.06 1006.97 1006.93 1006.93 1006.96 1007.02 1007.09 1007.17 1007.27
1014.41 1014.84 1015.11 1015.19 1015.10 1014.87 1014.54 1014.15 1013.75 1013.36 1013.00 1012.67 1012.35 1012.02 1011.66 1011.28 1010.88 1010.46 1010.05 1009.67 1009.36 1009.11 1008.93 1008.83 1008.76 1008.72 1008.68 1008.61 1008.51 1008.37 1008.21 1008.03 1007.85 1007.70 1007.57 1007.48 1007.43 1007.41 1007.42 1007.45 1007.49 1007.53 1007.57
1014.34 1014.76 1015.01 1015.09 1015.01 1014.80 1014.49 1014.12 1013.75 1013.38 1013.03 1012.70 1012.38 1012.05 1011.72 1011.36 1010.98 1010.59 1010.23 1009.89 1009.61 1009.39 1009.23 1009.13 1009.06 1009.00 1008.95 1008.87 1008.76 1008.62 1008.47 1008.31 1008.15 1008.02 1007.92 1007.86 1007.83 1007.82 1007.82 1007.83 1007.84 1007.83 1007.82
1014.33 1014.72 1014.96 1015.03 1014.95 1014.74 1014.45 1014.11 1013.75 1013.40 1013.05 1012.73 1012.41 1012.08 1011.75 1011.39 1011.03 1010.67 1010.32 1010.01 1009.75 1009.54 1009.38 1009.27 1009.18 1009.11 1009.02 1008.92 1008.81 1008.67 1008.53 1008.39 1008.27 1008.18 1008.12 1008.09 1008.09 1008.09 1008.09 1008.08 1008.05 1008.00 1007.92
1014.39 1014.76 1014.97 1015.02 1014.93 1014.73 1014.45 1014.12 1013.78 1013.43 1013.09 1012.75 1012.42 1012.08 1011.73 1011.37 1011.01 1010.66 1010.32 1010.03 1009.77 1009.57 1009.41 1009.29 1009.18 1009.09 1008.98 1008.87 1008.74 1008.61 1008.48 1008.36 1008.28 1008.22 1008.20 1008.20 1008.22 1008.22 1008.21 1008.17 1008.09 1007.98 1007.83
1014.49 1014.84 1015.03 1015.06 1014.97 1014.77 1014.49 1014.17 1013.82 1013.47 1013.12 1012.77 1012.41 1012.05 1011.68 1011.30 1010.92 1010.57 1010.24 1009.95 1009.71 1009.52 1009.36 1009.24 1009.14 1009.03 1008.92 1008.80 1008.68 1008.55 1008.43 1008.33 1008.26 1008.23 1008.22 1008.23 1008.24 1008.23 1008.19 1008.09 1007.95 1007.77 1007.54
1014.59 1014.92 1015.10 1015.13 1015.02 1014.82 1014.55 1014.22 1013.88 1013.52 1013.15 1012.77 1012.38 1011.98 1011.58 1011.18 1010.79 1010.43 1010.11 1009.83 1009.61 1009.44 1009.31 1009.21 1009.12 1009.04 1008.94 1008.82 1008.70 1008.57 1008.46 1008.36 1008.29 1008.25 1008.23 1008.21 1008.19 1008.14 1008.04 1007.88 1007.67 1007.41 1007.11
1014.64 1014.97 1015.14 1015.16 1015.06 1014.86 1014.59 1014.27 1013.92 1013.55 1013.16 1012.76 1012.34 1011.91 1011.48 1011.05 1010.65 1010.29 1009.98 1009.73 1009.54 1009.41 1009.32 1009.26 1009.21 1009.15 1009.07 1008.98 1008.86 1008.73 1008.60 1008.48 1008.39 1008.31 1008.24 1008.18 1008.10 1007.98 1007.81 1007.59 1007.31 1006.97 1006.61
1014.62 1014.95 1015.11 1015.14 1015.05 1014.86 1014.60 1014.29 1013.95 1013.57 1013.17 1012.75 1012.31 1011.85 1011.40 1010.96 1010.55 1010.20 1009.90 1009.68 1009.54 1009.45 1009.42 1009.41 1009.40 1009.38 1009.34 1009.25 1009.14 1009.00 1008.84 1008.69 1008.54 1008.40 1008.27 1008.13 1007.98 1007.79 1007.56 1007.27 1006.92 1006.54 1006.13
1014.52 1014.84 1015.00 1015.04 1014.96 1014.80 1014.56 1014.27 1013.94 1013.58 1013.18 1012.76 1012.30 1011.84 1011.37 1010.93 1010.52 1010.18 1009.91 1009.73 1009.62 1009.59 1009.60 1009.64 1009.68 1009.70 1009.68 1009.60 1009.48 1009.32 1009.12 1008.91 1008.70 1008.49 1008.28 1008.07 1007.84 1007.59 1007.30 1006.96 1006.58 1006.17 1005.73
1014.35 1014.66 1014.83 1014.88 1014.82 1014.68 1014.48 1014.23 1013.93 1013.59 1013.21 1012.79 1012.35 1011.88 1011.42 1010.98 1010.59 1010.26 1010.01 1009.86 1009.79 1009.79 1009.85 1009.92 1010.00 1010.03 1010.02 1009.94 1009.80 1009.60 1009.36 1009.09 1008.80 1008.52 1008.24 1007.96 1007.68 1007.38 1007.06 1006.71 1006.32 1005.90 1005.47
1014.16 1014.45 1014.62 1014.68 1014.65 1014.55 1014.39 1014.18 1013.92 1013.62 1013.26 1012.87 1012.44 1011.99 1011.54 1011.11 1010.73 1010.42 1010.19 1010.05 1010.00 1010.03 1010.10 1010.20 1010.28 1010.32 1010.30 1010.20 1010.03 1009.78 1009.49 1009.16 1008.81 1008.47 1008.13 1007.81 1007.49 1007.18 1006.86 1006.52 1006.16 1005.76 1005.35
1013.99 1014.26 1014.43 1014.50 1014.50 1014.44 1014.32 1014.16 1013.94 1013.68 1013.36 1012.99 1012.59 1012.16 1011.72 1011.30 1010.93 1010.63 1010.41 1010.28 1010.23 1010.25 1010.32 1010.41 1010.48 1010.50 1010.45 1010.33 1010.12 1009.83 1009.49 1009.11 1008.72 1008.33 1007.97 1007.62 1007.31 1007.01 1006.71 1006.41 1006.09 1005.74 1005.37
1013.87 1014.12 1014.29 1014.38 1014.40 1014.38 1014.30 1014.18 1014.00 1013.77 1013.48 1013.15 1012.76 1012.35 1011.93 1011.52 1011.16 1010.86 1010.63 1010.49 1010.44 1010.44 1010.49 1010.55 1010.59 1010.58 1010.49 1010.33 1010.08 1009.77 1009.39 1008.98 1008.56 1008.16 1007.78 1007.45 1007.15 1006.88 1006.63 1006.38 1006.11 1005.82 1005.48
Thickness
5755 5751 5748 5745 5741 5737 5734 5731 5727 5724 5722 5720 5718 5716 5715 5714 5713 5711 5708 5706 5704 5703 5702 5703 5701 5700 5699 5697 5696 5694 5693 5692 5691 5690 5688 5690 5691 5690 5689 5689 5688 5688 5687
5750 5746 5743 5741 5738 5734 5731 5728 5726 5723 5720 5718 5716 5714 5713 5712 5711 5709 5705 5703 5701 5700 5701 5698 5698 5696 5694 5692 5691 5689 5688 5688 5687 5684 5683 5681 5682 5682 5686 5685 5683 5684 5684
5747 5743 5741 5738 5735 5731 5729 5727 5724 5722 5719 5717 5715 5713 5710 5708 5707 5705 5703 5701 5699 5697 5696 5695 5694 5693 5692 5690 5687 5684 5683 5681 5682 5682 5680 5677 5676 5677 5680 5680 5679 5679 5679
5747 5743 5740 5736 5734 5731 5729 5725 5722 5720 5717 5715 5713 5710 5707 5704 5703 5702 5701 5699 5697 5695 5694 5692 5691 5689 5688 5686 5684 5683 5681 5678 5677 5677 5676 5676 5676 5672 5671 5673 5675 5674 5674
5747 5742 5739 5735 5733 5730 5727 5724 5719 5716 5715 5713 5711 5708 5706 5704 5703 5701 5698 5697 5695 5693 5691 5689 5687 5685 5684 5681 5680 5678 5676 5676 5674 5673 5672 5670 5670 5670 5667 5666 5667 5669 5670
5744 5741 5738 5735 5731 5729 5725 5722 5717 5713 5712 5710 5709 5706 5703 5701 5699 5697 5695 5694 5693 5691 5688 5686 5683 5682 5680 5678 5675 5673 5673 5671 5670 5669 5669 5667 5665 5664 5663 5661 5660 5662 5665
5741 5737 5734 5731 5728 5726 5723 5719 5715 5711 5709 5707 5705 5704 5702 5699 5697 5695 5693 5691 5690 5688 5684 5683 5680 5678 5676 5674 5672 5670 5669 5667 5665 5664 5665 5664 5663 5663 5660 5657 5657 5657 5660
5739 5736 5733 5729 5726 5723 5720 5717 5713 5709 5707 5705 5703 5701 5699 5698 5697 5693 5692 5690 5688 5686 5682 5679 5677 5674 5672 5671 5669 5669 5667 5664 5662 5661 5659 5659 5659 5659 5657 5655 5653 5652 5654
5736 5734 5731 5727 5724 5721 5718 5714 5711 5708 5706 5704 5701 5699 5696 5695 5693 5690 5689 5688 5684 5682 5679 5676 5673 5671 5669 5667 5666 5665 5662 5661 5659 5658 5656 5655 5655 5654 5653 5652 5650 5647 5646
5733 5730 5727 5724 5722 5719 5716 5713 5709 5706 5704 5702 5700 5698 5695 5692 5690 5688 5685 5683 5680 5677 5675 5672 5669 5666 5665 5664 5662 5661 5659 5656 5655 5653 5651 5650 5651 5649 5648 5647 5646 5645 5643
5730 5727 5724 5721 5719 5716 5714 5710 5708 5705 5702 5701 5698 5695 5693 5690 5687 5685 5682 5680 5677 5674 5671 5669 5666 5664 5662 5660 5658 5657 5655 5652 5650 5649 5647 5645 5644 5644 5643 5642 5642 5641 5640
5728 5725 5722 5719 5716 5713 5711 5707 5705 5703 5701 5699 5696 5693 5690 5688 5684 5682 5680 5677 5673 5671 5669 5666 5663 5661 5658 5656 5654 5652 5650 5648 5646 5644 5642 5641 5640 5638 5637 5636 5635 5635 5634
5723 5721 5718 5715 5713 5710 5708 5705 5702 5701 5700 5698 5694 5690 5688 5685 5682 5679 5677 5674 5671 5668 5665 5662 5659 5657 5655 5652 5650 5648 5646 5644 5642 5640 5638 5636 5634 5632 5631 5629 5630 5630 5629
5718 5716 5713 5711 5709 5707 5704 5701 5699 5698 5696 5694 5691 5687 5684 5682 5679 5677 5674 5671 5668 5665 5661 5659 5656 5653 5651 5649 5646 5644 5642 5640 5639 5637 5635 5632 5630 5627 5625 5624 5623 5623 5622
5713 5711 5709 5707 5705 5703 5701 5699 5696 5694 5692 5689 5687 5684 5682 5679 5677 5674 5671 5668 5665 5662 5659 5655 5653 5650 5647 5645 5642 5640 5638 5635 5634 5633 5631 5629 5625 5621 5618 5618 5617 5616 5615
5707 5706 5705 5703 5701 5700 5697 5695 5692 5690 5688 5685 5683 5681 5678 5676 5674 5671 5668 5665 5662 5659 5656 5653 5650 5647 5645 5639 5635 5632 5633 5631 5630 5628 5627 5625 5621 5617 5612 5610 5608 5607 5607
5704 5702 5700 5699 5697 5696 5694 5691 5689 5687 5684 5682 5680 5678 5675 5673 5671 5669 5666 5662 5659 5656 5653 5650 5648 5644 5639 5634 5630 5627 5628 5627 5625 5623 5621 5621 5620 5614 5613 5609 5604 5603 5600
5700 5698 5696 5695 5693 5692 5690 5687 5685 5683 5681 5678 5677 5674 5672 5670 5667 5665 5662 5659 5656 5652 5649 5647 5645 5641 5636 5630 5626 5623 5624 5624 5622 5619 5617 5615 5613 5611 5606 5606 5606 5604 5602
5697 5694 5693 5691 5689 5687 5685 5682 5680 5679 5676 5674 5673 5672 5669 5666 5664 5661 5658 5655 5653 5650 5647 5645 5642 5638 5633 5626 5622 5618 5623 5622 5620 5617 5614 5611 5609 5603 5599 5600 5601 5601 5600
5692 5690 5689 5687 5684 5682 5680 5677 5676 5674 5672 5671 5670 5668 5666 5662 5659 5657 5654 5652 5649 5647 5645 5642 5639 5636 5632 5623 5619 5614 5621 5619 5618 5616 5613 5606 5603 5599 5595 5596 5597 5597 5596
5687 5686 5684 5681 5678 5677 5675 5672 5671 5670 5669 5668 5666 5664 5661 5658 5655 5653 5650 5648 5646 5643 5641 5638 5636 5632 5628 5622 5616 5612 5615 5616 5615 5614 5612 5608 5599 5594 5591 5590 5593 5592 5589
5681 5680 5678 5675 5673 5672 5670 5667 5666 5666 5665 5664 5662 5659 5657 5655 5653 5648 5646 5644 5642 5639 5637 5634 5633 5631 5626 5620 5615 5610 5607 5606 5608 5609 5609 5605 5596 5592 5588 5588 5588 5585 5584
5676 5675 5673 5670 5668 5667 5666 5663 5662 5661 5660 5658 5656 5655 5652 5650 5648 5646 5644 5641 5639 5638 5637 5634 5632 5630 5627 5621 5613 5608 5604 5601 5601 5604 5599 5595 5592 5589 5589 5586 5584 5583 5585
5671 5670 5668 5665 5663 5663 5662 5660 5659 5657 5656 5653 5651 5650 5648 5646 5644 5642 5642 5641 5639 5637 5635 5633 5630 5628 5624 5621 5616 5611 5607 5600 5599 5599 5597 5592 5589 5588 5587 5587 5586 5586 5586
5666 5664 5662 5660 5658 5658 5657 5656 5655 5653 5651 5649 5647 5646 5645 5644 5641 5640 5638 5637 5635 5632 5628 5629 5627 5624 5620 5614 5606 5605 5605 5602 5599 5595 5596 5596 5594 5593 5592 5591 5590 5587 5586
5660 5658 5656 5656 5655 5654 5652 5651 5650 5648 5646 5644 5643 5643 5642 5641 5640 5638 5635 5629 5627 5622 5619 5616 5615 5616 5610 5604 5600 5597 5593 5590 5587 5588 5593 5593 5592 5591 5590 5590 5589 5586 5584